Regional Weather Roundup
Issued by NWS Upton, NY

Current Version | Previous Version | Graphics & Text | Print | Product List | Glossary Off
Versions: 1 2 3 4 5 6 7 8 9 10 11 12 13 14 15 16 17 18 19 20 21 22 23 24 25 26 27 28 29 30 31 32 33 34 35 36 37 38 39 40 41 42 43 44 45 46 47 48 49 50

000
ASUS41 KOKX 221408
RWROKX

REGIONAL WEATHER ROUNDUP
NATIONAL WEATHER SERVICE NEW YORK NY
1000 AM EDT FRI MAY 22 2015

NOTE: "FAIR" INDICATES FEW OR NO CLOUDS BELOW 12,000 FEET WITH NO
SIGNIFICANT WEATHER AND/OR OBSTRUCTIONS TO VISIBILITY.

NYZ071-072-176-178-NJZ106-104-221500-
NEW YORK CITY METRO AREA


CITY           SKY/WX    TMP DP  RH WIND       PRES   REMARKS
CENTRAL PARK   SUNNY     64  40  41 W8        29.95R
LAGUARDIA APRT SUNNY     64  41  42 NW12      29.92R
KENNEDY INTL   SUNNY     67  38  34 NW8       29.93R
NEWARK/LIBERTY SUNNY     67  41  38 W15       29.93S
BRNX BOT. GARD   N/A     63  39  42 NW7       29.94R
TETERBORO      SUNNY     67  40  37 NW9G17    29.91S
$$

NYZ177-179-078>081-221500-
LONG ISLAND NEW YORK

CITY           SKY/WX    TMP DP  RH WIND       PRES   REMARKS
FARMINGDALE    SUNNY     65  41  41 NW10G18   29.92R
ISLIP          SUNNY     65  41  41 NW12      29.90R
SHIRLEY        SUNNY     64  44  48 W12       29.91R
WESTHAMPTON    SUNNY     64  45  49 NW12      29.91R
MONTAUK POINT    N/A     58  49  72 W9        29.88R
$$

NYZ052-065-067-221500-
HUDSON VALLEY

CITY           SKY/WX    TMP DP  RH WIND       PRES   REMARKS
WHITE PLAINS   SUNNY     63  42  46 W13       29.91R
NEWBURGH       SUNNY     61  45  55 W16       29.92S
MONTGOMERY     SUNNY     63  43  48 W7        29.91R
POUGHKEEPSIE   SUNNY     63  43  48 CALM      29.90R
ALBANY         MOSUNNY   63  41  44 W10       29.88S
$$

NJZ001-105-106-008-010-013-015-019>022-104-221500-
NEW JERSEY

CITY           SKY/WX    TMP DP  RH WIND       PRES   REMARKS
NEWARK/LIBERTY SUNNY     67  41  38 W15       29.93S
TETERBORO      SUNNY     67  40  37 NW9G17    29.91S
CALDWELL       SUNNY     65  39  38 W12G17    29.93S
MORRISTOWN     SUNNY     68  45  42 NW10G16   29.94S
SOMERVILLE     SUNNY     65  42  43 CALM      29.93S
SUSSEX         SUNNY     63  41  44 W5        29.94S
ANDOVER          N/A     62  43  49 CALM      29.94S
TRENTON        SUNNY     64  42  44 W10       29.97R
MILLVILLE      SUNNY     62  47  57 W7        30.02R
ATLANTIC CITY  SUNNY     62  48  60 W12       30.00R
WRIGHTSTOWN    SUNNY     62  45  53 W10       29.96R
TOMS RIVER     SUNNY     63  45  51 NW12      29.98S
BELMAR         SUNNY     61  45  55 W12       29.96R
$$

PAZ047>061-062-071-221500-
EASTERN PENNSYLVANIA

CITY           SKY/WX    TMP DP  RH WIND       PRES   REMARKS
PHILADELPHIA   SUNNY     64  41  42 W14       30.00R
ALLENTOWN      SUNNY     64  41  42 W14G21    29.98R
SCRANTON       SUNNY     58  41  53 VRB7      29.97S
$$

CTZ002-004>006-009-010-012-RIZ004-006-007-MAZ004-011-015-221500-
SOUTHERN NEW ENGLAND
 IN CT

CITY           SKY/WX    TMP DP  RH WIND       PRES   REMARKS
BRADLEY INTL   SUNNY     67  40  37 NW10      29.85S
HARTFORD       SUNNY     65  41  41 VRB7      29.86S
DANBURY        SUNNY     62  40  44 VRB6      29.91R
WTRBRY/OXFORD  SUNNY     61  41  48 W7        29.90F
BRIDGEPORT     SUNNY     66  40  38 W9        29.89R
MERIDEN        SUNNY     66  38  35 NW10      29.87S
NEW HAVEN      SUNNY     64  41  42 W7        29.88R
CHESTER        FAIR      63  37  39 NW9G16    29.88R
GROTON         SUNNY     66  42  41 NW10      29.85S
WILLIMANTIC    SUNNY     64  39  39 NW8G17    29.86R

 IN RI

CITY           SKY/WX    TMP DP  RH WIND       PRES   REMARKS
PROVIDENCE     MOSUNNY   65  38  36 NW13      29.83S
BLOCK ISLAND   SUNNY     57  48  72 W8        29.87R
WESTERLY       SUNNY     65  43  44 NW8G17    29.86R

 IN MA

CITY           SKY/WX    TMP DP  RH WIND       PRES   REMARKS
BOSTON         MOSUNNY   65  38  36 W7G16     29.81F
WORCESTER      SUNNY     62  37  39 W14       29.84S
WESTFIELD      SUNNY     66  37  34 NW14      29.85F
PROVINCETOWN   MOSUNNY   57  50  77 W7        29.83S
NANTUCKET      PTSUNNY   55  48  77 N9        29.83S
$$

ANZ330-335-338-340-345-350-353-355-221500-
COASTAL MARINE OBSERVATIONS


STATION/POSITION TIME  SKY/WX   TEMP    WIND        PRES    VSBY  WAVE
                                AIR SEA DIR/SP/G                  HT/PER
                 (UTC)          (F)     (DEG/KT/KT) (MB)    (MI)  (FT/S)
NY HARB ENTRANCE 1350            57 56  280/ 14/ 16 1013.4          2/ 3
4S FIRE IS       1303               54                N/A           1/ 8
20S FIRE ISLAND  1350            56 55  290/ 14/ 17 1013.2          2/ 4
GREAT SOUTH BAY  1300            59 62  300/ 10/ 10   N/A
23SW MTP         1350            53 53  270/ 10/ 12 1011.7          1/ 8
HUDSON CANYON    NOT AVBL
KINGS POINT      1300            59 55   10/  5/ 10 1012.3
CENTRAL LI SOUND 1330            54 53  240/ 12/ 14   N/A
EASTERN LI SOUND 1300            51     250/  6/  8   N/A
ROBBINS REEF     1300            59     300/ 13/ 16 1012.2
$$


>>>>>>>>>>>>>>>>>>>>>>>>>>>> KEY <<<<<<<<<<<<<<<<<<<<<<<<<<<
>                                                          <
>     SKY/WX - SKY CONDITION/PRESENT WEATHER               <
>     TMP    - TEMPERATURE IN FAHRENHEIT                   <
>     DP     - DEWPOINT IN FAHRENHEIT                      <
>     RH     - RELATIVE HUMIDITY IN PERCENT                <
>     WIND   - DIRECTION AND SPEED IN MPH                  <
>     PRES   - MEAN SEA LEVEL PRESSURE IN INCHES OF HG     <
>     WCI    - WIND CHILL INDEX                            <
>     VSB    - VISIBILITY IN MILES                         <
>     HX     - HEAT INDEX                                  <
>     TC     - TEMPERATURE IN CELSIUS                      <
>     VRB    - VARIABLE WIND DIRECTION                     <
>                                                          <
>>>>>>>>>>>>>>>>>>>>>>>>>>>> KEY <<<<<<<<<<<<<<<<<<<<<<<<<<<




USA.gov is the U.S. government's official web portal to all federal, state and local government web resources and services.